GW3294 Weather Reports


Display with metric or nautical units.
time (UTC)temp
F
wind
direction
speed
MPH
gust
MPH
rain 1hr
in
rain 24hr
in
rain mn
in
humidity
%
barometer
mb
20260902112916 75 50 0.0 1.0 0.00 0.00 0.00 88 1019.4
20260902112413 76 89 0.0 1.0 0.00 0.00 0.00 87 1019.3
20260902111908 76 9 0.0 1.0 0.00 0.00 0.00 87 1019.3
20260902111405 76 230 0.0 0.0 0.00 0.00 0.00 86 1019.2
20260902110900 76 148 0.0 2.0 0.00 0.00 0.00 86 1019.4
20260902110356 77 66 0.0 2.0 0.00 0.00 0.00 84 1019.1
20260902105856 78 117 0.0 2.0 0.00 0.00 0.00 83 1019.4
20260902105351 78 322 0.0 2.0 0.00 0.00 0.00 83 1019.2
20260902104845 79 183 0.0 2.0 0.00 0.00 0.00 79 1019.1
20260902104341 79 204 4.0 5.0 0.00 0.00 0.00 75 1019.3
20260902103836 78 75 0.0 1.0 0.00 0.00 0.00 78 1019.1
20260902103331 80 185 0.0 1.0 0.00 0.00 0.00 80 1019.3
20260902102826 81 310 0.0 1.0 0.00 0.00 0.00 77 1019.0
20260902102324 81 257 1.0 1.0 0.00 0.00 0.00 73 1019.1
20260902101819 81 212 0.0 3.0 0.00 0.00 0.00 74 1019.1
20260902101318 82 297 0.0 2.0 0.00 0.00 0.00 72 1019.1
20260902100812 82 77 2.0 5.0 0.00 0.00 0.00 71 1019.1
20260902100307 82 228 2.0 5.0 0.00 0.00 0.00 71 1018.9
20260902095802 82 227 1.0 6.0 0.00 0.00 0.00 73 1019.0
20260902095306 82 169 1.0 5.0 0.00 0.00 0.00 72 1019.0
20260902094756 82 184 1.0 3.0 0.00 0.00 0.00 72 1019.0
20260902094253 82 256 0.0 3.0 0.00 0.00 0.00 71 1019.0
20260902093752 82 123 0.0 3.0 0.00 0.00 0.00 72 1018.9
20260902093247 81 157 2.0 4.0 0.00 0.00 0.00 73 1018.9
20260902092746 81 193 1.0 2.0 0.00 0.00 0.00 73 1018.6
20260902092242 81 184 0.0 2.0 0.00 0.00 0.00 75 1018.8
20260902091741 80 207 1.0 3.0 0.00 0.00 0.00 76 1018.6
20260902091237 80 137 0.0 2.0 0.00 0.00 0.00 76 1018.8
20260902090733 80 234 2.0 2.0 0.00 0.00 0.00 77 1018.7
20260902090232 80 182 1.0 2.0 0.00 0.00 0.00 79 1018.7
20260902085727 79 184 0.0 2.0 0.00 0.00 0.00 79 1018.8
20260902085222 79 152 0.0 2.0 0.00 0.00 0.00 79 1018.7
20260902084718 79 162 0.0 2.0 0.00 0.00 0.00 79 1018.8
20260902084214 80 172 1.0 3.0 0.00 0.00 0.00 79 1018.9
20260902083709 80 269 0.0 2.0 0.00 0.00 0.00 76 1018.6
20260902083208 81 166 0.0 2.0 0.00 0.00 0.00 76 1018.7
20260902082704 80 195 0.0 1.0 0.00 0.00 0.00 76 1018.8
20260902082200 81 117 0.0 2.0 0.00 0.00 0.00 75 1018.5
20260902081656 80 154 0.0 2.0 0.00 0.00 0.00 76 1018.5
20260902081151 80 295 1.0 1.0 0.00 0.00 0.00 76 1018.6
20260902080646 80 241 1.0 2.0 0.00 0.00 0.00 77 1018.6
20260902080143 79 124 0.0 2.0 0.00 0.00 0.00 78 1018.4
20260902075643 79 217 0.0 2.0 0.00 0.00 0.00 81 1018.6
20260902075139 79 152 2.0 3.0 0.00 0.00 0.00 78 1018.5
20260902074634 78 154 0.0 2.0 0.00 0.00 0.00 84 1018.7
20260902074129 77 92 0.0 2.0 0.00 0.00 0.00 85 1018.8
20260902073624 77 130 0.0 3.0 0.00 0.00 0.00 86 1018.8
20260902073120 77 255 0.0 1.0 0.00 0.00 0.00 85 1018.6
20260902072616 77 186 0.0 1.0 0.00 0.00 0.00 85 1018.7
20260902072112 77 75 0.0 1.0 0.00 0.00 0.00 87 1018.5
20260902071607 77 29 0.0 2.0 0.00 0.00 0.00 85 1018.6
20260902071103 77 147 0.0 1.0 0.00 0.00 0.00 86 1018.6
20260902070558 77 118 2.0 3.0 0.00 0.00 0.00 86 1018.8
20260902070053 77 104 0.0 2.0 0.00 0.00 0.00 86 1018.5
20260902065546 78 142 0.0 2.0 0.00 0.00 0.00 85 1018.7
20260902065042 78 129 0.0 0.0 0.00 0.00 0.00 85 1018.6
20260902064538 78 147 0.0 2.0 0.00 0.00 0.00 84 1018.6
20260902064033 77 160 0.0 2.0 0.00 0.00 0.00 84 1018.9
20260902063532 77 157 0.0 2.0 0.00 0.00 0.00 85 1018.7
20260902063028 77 96 1.0 2.0 0.00 0.00 0.00 85 1018.7
20260902062527 78 95 0.0 1.0 0.00 0.00 0.00 84 1018.8
20260902062023 78 129 0.0 0.0 0.00 0.00 0.00 84 1019.1
20260902061522 78 130 0.0 1.0 0.00 0.00 0.00 84 1018.8
20260902061018 78 124 0.0 2.0 0.00 0.00 0.00 84 1019.0
20260902060515 78 113 1.0 1.0 0.00 0.00 0.00 83 1018.8
20260902060011 78 142 0.0 1.0 0.00 0.00 0.00 82 1018.8
20260902055506 78 147 0.0 2.0 0.00 0.00 0.00 83 1018.7
20260902055001 79 150 0.0 2.0 0.00 0.00 0.00 82 1018.8
20260902054456 79 164 0.0 0.0 0.00 0.00 0.00 81 1018.7
20260902053952 79 205 0.0 0.0 0.00 0.00 0.00 79 1018.8
20260902053452 80 37 0.0 1.0 0.00 0.00 0.00 79 1018.9
20260902052951 80 154 0.0 1.0 0.00 0.00 0.00 80 1018.7
20260902052446 80 166 0.0 0.0 0.00 0.00 0.00 77 1018.8
20260902051942 80 195 0.0 0.0 0.00 0.00 0.00 79 1018.5
20260902051437 80 142 0.0 1.0 0.00 0.00 0.00 79 1018.7
20260902050936 80 205 0.0 1.0 0.00 0.00 0.00 78 1018.8
20260902050435 81 164 0.0 1.0 0.00 0.00 0.00 78 1018.6
20260902045930 81 205 0.0 0.0 0.00 0.00 0.00 75 1018.6
20260902045426 82 205 0.0 0.0 0.00 0.00 0.00 75 1018.7
20260902044922 82 195 0.0 2.0 0.00 0.00 0.00 75 1018.7
20260902044418 82 89 0.0 2.0 0.00 0.00 0.00 74 1018.5
20260902043913 83 75 0.0 2.0 0.00 0.00 0.00 72 1018.5
20260902043408 83 189 0.0 1.0 0.00 0.00 0.00 72 1018.6
20260902042903 83 164 0.0 1.0 0.00 0.00 0.00 71 1018.6
20260902042402 83 159 0.0 2.0 0.00 0.00 0.00 70 1018.5
20260902041857 82 343 0.0 1.0 0.00 0.00 0.00 71 1018.5
20260902041352 82 240 0.0 2.0 0.00 0.00 0.00 72 1018.6
20260902040850 82 117 0.0 2.0 0.00 0.00 0.00 74 1018.5
20260902040346 81 142 0.0 3.0 0.00 0.00 0.00 73 1018.5
20260902035844 81 166 0.0 1.0 0.00 0.00 0.00 74 1018.7
20260902035340 82 195 0.0 1.0 0.00 0.00 0.00 75 1018.5
20260902034839 82 217 0.0 2.0 0.00 0.00 0.00 72 1018.6
20260902034335 83 180 0.0 2.0 0.00 0.00 0.00 71 1018.7
20260902033832 83 352 0.0 1.0 0.00 0.00 0.00 69 1018.6
20260902033328 83 172 1.0 2.0 0.00 0.00 0.00 71 1018.6
20260902032827 82 177 0.0 1.0 0.00 0.00 0.00 71 1018.4
20260902032322 82 242 0.0 1.0 0.00 0.00 0.00 73 1018.6
20260902031821 82 165 1.0 1.0 0.00 0.00 0.00 74 1018.6
20260902031318 82 151 0.0 2.0 0.00 0.00 0.00 73 1018.5
20260902030813 83 135 0.0 0.0 0.00 0.00 0.00 70 1018.5
20260902030308 83 135 0.0 1.0 0.00 0.00 0.00 71 1018.5
20260902025806 84 224 0.0 2.0 0.00 0.00 0.00 70 1018.4
20260902025306 84 173 0.0 0.0 0.00 0.00 0.00 67 1018.5
20260902024756 85 336 0.0 1.0 0.00 0.00 0.00 65 1018.4
20260902024252 85 165 0.0 1.0 0.00 0.00 0.00 67 1018.5
20260902023748 86 269 0.0 1.0 0.00 0.00 0.00 62 1018.4
20260902023243 86 230 0.0 1.0 0.00 0.00 0.00 62 1018.2
20260902022742 86 6 0.0 2.0 0.00 0.00 0.00 61 1018.2
20260902022238 86 242 0.0 1.0 0.00 0.00 0.00 61 1018.2
20260902021734 86 178 1.0 3.0 0.00 0.00 0.00 65 1018.2
20260902021233 86 336 0.0 2.0 0.00 0.00 0.00 63 1018.2
20260902020730 86 79 0.0 2.0 0.00 0.00 0.00 63 1018.1
20260902020225 86 210 0.0 2.0 0.00 0.00 0.00 65 1017.9
20260902015720 86 212 0.0 2.0 0.00 0.00 0.00 63 1017.9
20260902015217 86 156 0.0 2.0 0.00 0.00 0.00 68 1017.9
20260902014712 87 310 0.0 1.0 0.00 0.00 0.00 63 1017.7
20260902014209 88 224 0.0 1.0 0.00 0.00 0.00 65 1017.7
20260902013707 88 224 0.0 2.0 0.00 0.00 0.00 62 1017.8
20260902013203 89 135 0.0 2.0 0.00 0.00 0.00 61 1017.4
20260902012658 89 230 0.0 2.0 0.00 0.00 0.00 58 1017.7
20260902012153 89 117 0.0 1.0 0.00 0.00 0.00 58 1017.7
20260902011649 89 89 0.0 2.0 0.00 0.00 0.00 57 1017.7
20260902011143 89 124 0.0 2.0 0.00 0.00 0.00 58 1017.4
20260902010642 90 107 0.0 2.0 0.00 0.00 0.00 57 1017.5
20260902010138 90 129 0.0 0.0 0.00 0.00 0.00 56 1017.5
20260902005636 90 308 0.0 2.0 0.00 0.00 0.00 56 1017.4
20260902005132 91 4 2.0 2.0 0.00 0.00 0.00 55 1017.5
20260902004631 91 147 0.0 2.0 0.00 0.00 0.00 55 1017.3
20260902004127 91 350 0.0 4.0 0.00 0.00 0.00 55 1017.2
20260902003622 91 117 1.0 2.0 0.00 0.00 0.00 57 1017.4
20260902003117 91 75 0.0 1.0 0.00 0.00 0.00 54 1017.5
20260902002613 92 185 0.0 5.0 0.00 0.00 0.00 54 1017.2
20260902002108 92 166 2.0 2.0 0.00 0.00 0.00 56 1017.5
20260902001603 93 180 0.0 3.0 0.00 0.00 0.00 52 1017.3
20260902001058 93 25 2.0 3.0 0.00 0.00 0.00 52 1017.2
20260902000552 93 333 0.0 2.0 0.00 0.00 0.00 51 1017.4
20260902000048 93 111 0.0 3.0 0.00 0.00 0.00 50 1017.6
20260901235547 93 139 0.0 2.0 0.00 0.00 0.00 50 1017.4
20260901235043 94 124 0.0 3.0 0.00 0.00 0.00 52 1017.5
20260901234542 95 164 4.0 5.0 0.00 0.00 0.00 48 1017.6
20260901234037 94 184 3.0 6.0 0.00 0.00 0.00 49 1017.6
20260901233537 95 185 0.0 3.0 0.00 0.00 0.00 50 1017.4
20260901233033 95 127 1.0 6.0 0.00 0.00 0.00 49 1017.6
20260901232528 95 164 0.0 2.0 0.00 0.00 0.00 49 1017.5
20260901232024 95 124 2.0 3.0 0.00 0.00 0.00 49 1017.5
20260901231520 95 89 0.0 5.0 0.00 0.00 0.00 48 1017.7
20260901231016 96 141 1.0 2.0 0.00 0.00 0.00 49 1017.7
20260901230516 97 164 0.0 3.0 0.00 0.00 0.00 49 1017.6
20260901230011 97 76 0.0 2.0 0.00 0.00 0.00 47 1017.8
20260901225506 97 310 0.0 1.0 0.00 0.00 0.00 47 1017.5
20260901225000 97 25 0.0 3.0 0.00 0.00 0.00 48 1017.4
20260901224456 98 261 1.0 2.0 0.00 0.00 0.00 48 1017.6
20260901223952 98 277 3.0 5.0 0.00 0.00 0.00 43 1017.5
20260901223448 100 61 0.0 2.0 0.00 0.00 0.00 46 1017.4
20260901222943 101 275 1.0 2.0 0.00 0.00 0.00 45 1017.5
20260901222439 102 217 0.0 2.0 0.00 0.00 0.00 45 1017.6
20260901221935 103 229 0.0 2.0 0.00 0.00 0.00 44 1017.6
20260901221431 101 261 1.0 2.0 0.00 0.00 0.00 44 1017.6
20260901220931 102 235 1.0 2.0 0.00 0.00 0.00 45 1017.5
20260901220430 104 269 0.0 2.0 0.00 0.00 0.00 41 1017.5
20260901215928 104 224 0.0 2.0 0.00 0.00 0.00 38 1017.4
20260901215427 104 262 0.0 3.0 0.00 0.00 0.00 40 1017.2
20260901214927 104 268 1.0 2.0 0.00 0.00 0.00 37 1017.4
20260901214425 102 284 2.0 2.0 0.00 0.00 0.00 41 1017.3
20260901213920 101 257 0.0 2.0 0.00 0.00 0.00 46 1017.3
20260901213415 101 234 1.0 2.0 0.00 0.00 0.00 45 1017.3
20260901212914 103 241 0.0 2.0 0.00 0.00 0.00 44 1017.5
20260901212410 100 242 2.0 3.0 0.00 0.00 0.00 40 1017.4
20260901211906 104 264 1.0 3.0 0.00 0.00 0.00 43 1017.5
20260901211401 101 283 0.0 2.0 0.00 0.00 0.00 43 1017.4
20260901210857 100 279 1.0 2.0 0.00 0.00 0.00 41 1017.6
20260901210352 99 205 0.0 4.0 0.00 0.00 0.00 42 1017.7
20260901205849 102 205 1.0 3.0 0.00 0.00 0.00 39 1017.7
20260901205343 104 257 2.0 2.0 0.00 0.00 0.00 37 1017.8
20260901204838 102 336 0.0 4.0 0.00 0.00 0.00 40 1017.9
20260901204335 101 130 1.0 9.0 0.00 0.00 0.00 38 1017.7
20260901203834 102 182 2.0 7.0 0.00 0.00 0.00 37 1018.1
20260901203329 104 235 0.0 5.0 0.00 0.00 0.00 40 1018.1
20260901202824 105 249 4.0 4.0 0.00 0.00 0.00 39 1017.9
20260901202319 102 271 3.0 4.0 0.00 0.00 0.00 38 1018.0
20260901201815 106 197 2.0 4.0 0.00 0.00 0.00 35 1018.1
20260901201314 109 248 2.0 4.0 0.00 0.00 0.00 38 1018.3
20260901200809 108 201 3.0 6.0 0.00 0.00 0.00 34 1018.3
20260901200304 108 265 0.0 2.0 0.00 0.00 0.00 36 1018.4
20260901195801 105 31 2.0 3.0 0.00 0.00 0.00 36 1018.4
20260901195255 107 327 0.0 3.0 0.00 0.00 0.00 37 1018.4
20260901194751 107 233 2.0 3.0 0.00 0.00 0.00 36 1018.6
20260901194246 104 155 3.0 5.0 0.00 0.00 0.00 39 1018.4
20260901193742 105 208 2.0 4.0 0.00 0.00 0.00 35 1018.7
20260901193240 104 70 1.0 3.0 0.00 0.00 0.00 36 1018.5
20260901192736 105 198 1.0 4.0 0.00 0.00 0.00 34 1018.9
20260901192231 103 138 3.0 5.0 0.00 0.00 0.00 39 1018.8
20260901191727 104 223 2.0 4.0 0.00 0.00 0.00 38 1019.0
20260901191223 102 254 2.0 5.0 0.00 0.00 0.00 38 1018.9
20260901190718 104 254 2.0 5.0 0.00 0.00 0.00 36 1019.1
20260901190218 102 264 2.0 5.0 0.00 0.00 0.00 38 1019.0
20260901185717 105 163 2.0 3.0 0.00 0.00 0.00 36 1019.0
20260901185215 104 251 2.0 4.0 0.00 0.00 0.00 36 1019.0
20260901184711 102 178 0.0 4.0 0.00 0.00 0.00 37 1019.2
20260901184206 102 251 1.0 5.0 0.00 0.00 0.00 42 1019.3
20260901183702 101 196 1.0 3.0 0.00 0.00 0.00 45 1019.2
20260901183201 103 132 0.0 4.0 0.00 0.00 0.00 43 1019.3
20260901182657 101 239 2.0 6.0 0.00 0.00 0.00 44 1019.4
20260901182150 102 256 3.0 4.0 0.00 0.00 0.00 43 1019.5
20260901181645 100 260 2.0 6.0 0.00 0.00 0.00 47 1019.6
20260901181139 101 255 2.0 4.0 0.00 0.00 0.00 47 1019.4
20260901180634 99 112 0.0 2.0 0.00 0.00 0.00 47 1019.6
20260901180128 100 198 1.0 4.0 0.00 0.00 0.00 47 1019.6
20260901175627 101 243 2.0 3.0 0.00 0.00 0.00 47 1019.7
20260901175122 100 192 0.0 4.0 0.00 0.00 0.00 47 1019.7
20260901174617 100 244 2.0 4.0 0.00 0.00 0.00 48 1019.7
20260901174114 101 190 3.0 4.0 0.00 0.00 0.00 47 1020.0
20260901173614 100 306 1.0 3.0 0.00 0.00 0.00 52 1019.9
20260901173109 98 208 0.0 5.0 0.00 0.00 0.00 53 1019.8
20260901172605 99 249 3.0 4.0 0.00 0.00 0.00 50 1019.9
20260901172103 100 231 1.0 4.0 0.00 0.00 0.00 49 1020.1
20260901171602 100 182 2.0 6.0 0.00 0.00 0.00 48 1020.1
20260901171101 98 260 2.0 3.0 0.00 0.00 0.00 50 1020.1
20260901170555 97 181 3.0 5.0 0.00 0.00 0.00 50 1020.3
20260901170050 99 143 1.0 3.0 0.00 0.00 0.00 50 1020.2
20260901165544 98 218 0.0 3.0 0.00 0.00 0.00 53 1020.2
20260901165040 97 241 2.0 3.0 0.00 0.00 0.00 52 1020.4
20260901164535 96 214 1.0 4.0 0.00 0.00 0.00 53 1020.3
20260901164030 96 233 1.0 4.0 0.00 0.00 0.00 53 1020.5
20260901163526 95 147 3.0 4.0 0.00 0.00 0.00 53 1020.3
20260901163025 95 251 3.0 5.0 0.00 0.00 0.00 54 1020.4
20260901162520 94 265 0.0 9.0 0.00 0.00 0.00 57 1020.6
20260901162019 93 284 3.0 4.0 0.00 0.00 0.00 57 1020.5
20260901161518 94 134 3.0 5.0 0.00 0.00 0.00 55 1020.6
20260901161018 93 272 3.0 7.0 0.00 0.00 0.00 56 1020.6
20260901160515 92 301 1.0 5.0 0.00 0.00 0.00 58 1020.4
20260901160014 92 218 5.0 7.0 0.00 0.00 0.00 57 1020.6
20260901155508 91 284 3.0 6.0 0.00 0.00 0.00 59 1020.5
20260901155004 91 309 2.0 4.0 0.00 0.00 0.00 60 1020.4
20260901154504 91 152 2.0 4.0 0.00 0.00 0.00 61 1020.7
20260901153958 90 193 1.0 6.0 0.00 0.00 0.00 60 1020.7
20260901153453 90 309 2.0 5.0 0.00 0.00 0.00 61 1020.8
20260901152952 90 264 3.0 4.0 0.00 0.00 0.00 64 1020.5
20260901152447 90 167 3.0 6.0 0.00 0.00 0.00 60 1020.7
20260901151947 90 207 2.0 5.0 0.00 0.00 0.00 63 1020.6
20260901151442 89 279 2.0 3.0 0.00 0.00 0.00 63 1020.8
20260901150941 89 139 4.0 7.0 0.00 0.00 0.00 63 1020.6
20260901150439 88 161 3.0 7.0 0.00 0.00 0.00 65 1020.6
20260901145937 87 286 0.0 4.0 0.00 0.00 0.00 66 1020.5
20260901145431 87 205 2.0 7.0 0.00 0.00 0.00 65 1020.8
20260901144926 87 271 3.0 4.0 0.00 0.00 0.00 67 1020.2
20260901144421 86 299 0.0 5.0 0.00 0.00 0.00 68 1020.7
20260901143917 86 255 1.0 4.0 0.00 0.00 0.00 67 1020.5
20260901143413 87 168 1.0 3.0 0.00 0.00 0.00 67 1020.7
20260901142909 86 263 2.0 7.0 0.00 0.00 0.00 68 1020.6
20260901142408 86 249 0.0 3.0 0.00 0.00 0.00 70 1020.6
20260901141904 85 158 3.0 5.0 0.00 0.00 0.00 69 1020.7
20260901141358 84 232 1.0 3.0 0.00 0.00 0.00 72 1020.5
20260901140857 83 255 0.0 3.0 0.00 0.00 0.00 72 1020.6
20260901140356 82 240 0.0 3.0 0.00 0.00 0.00 74 1020.6
20260901135850 82 96 0.0 3.0 0.00 0.00 0.00 74 1020.7
20260901135346 82 262 1.0 4.0 0.00 0.00 0.00 76 1020.7
20260901134841 82 210 0.0 3.0 0.00 0.00 0.00 75 1020.8
20260901134337 81 346 1.0 2.0 0.00 0.00 0.00 77 1020.7
20260901133831 80 325 0.0 2.0 0.00 0.00 0.00 77 1020.8
20260901133330 80 163 2.0 3.0 0.00 0.00 0.00 78 1020.7
20260901132829 80 154 0.0 4.0 0.00 0.00 0.00 78 1020.9
20260901132323 79 127 0.0 2.0 0.00 0.00 0.00 81 1020.6
20260901131818 78 195 0.0 3.0 0.00 0.00 0.00 80 1020.6
20260901131317 77 193 0.0 3.0 0.00 0.00 0.00 83 1020.6
20260901130812 77 224 0.0 1.0 0.00 0.00 0.00 86 1020.7
20260901130307 75 221 1.0 2.0 0.00 0.00 0.00 86 1020.6
20260901125804 75 135 0.0 1.0 0.00 0.00 0.00 88 1020.6
20260901125259 75 186 0.0 2.0 0.00 0.00 0.00 89 1020.5
20260901124754 73 77 0.0 1.0 0.00 0.00 0.00 93 1020.4
20260901124249 73 129 0.0 1.0 0.00 0.00 0.00 93 1020.3
20260901123748 73 140 0.0 2.0 0.00 0.00 0.00 94 1020.3
20260901123243 72 119 0.0 2.0 0.00 0.00 0.00 94 1020.3
20260901122742 72 92 1.0 2.0 0.00 0.00 0.00 95 1020.3
20260901122237 72 160 1.0 2.0 0.00 0.00 0.00 95 1020.3
20260901121731 71 142 0.0 1.0 0.00 0.00 0.00 95 1020.4
20260901121226 71 113 0.0 2.0 0.00 0.00 0.00 95 1020.4
20260901120725 71 57 0.0 2.0 0.00 0.00 0.00 95 1020.1
20260901120220 71 89 0.0 2.0 0.00 0.00 0.00 94 1020.1
20260901115716 71 135 0.0 2.0 0.00 0.00 0.00 95 1020.1
20260901115212 71 140 0.0 2.0 0.00 0.00 0.00 94 1020.0
20260901114709 71 107 1.0 2.0 0.00 0.00 0.00 94 1020.0
20260901114208 71 108 0.0 2.0 0.00 0.00 0.00 95 1019.7
20260901113702 71 106 1.0 2.0 0.00 0.00 0.00 95 1019.8